Vorticity
10 12 12 -1 11 8 10 6 8 7 12 6 7 11 15 12 7 4 9 7 16 4 11 6 2 14 8 12 1 3 6 17 9 13 -6 6 -5 15 -7 -1 15 8 -0 13
-0 12 0 3 9 10 6 5 9 15 10 8 13 10 12 14 9 5 11 11 2 10 8 7 11 5 14 22 -2 11 -2 25 1 25 14 15 4 1 0 5 -8 7 -0 23
18 3 -2 8 8 10 7 9 6 14 14 8 16 6 11 5 8 9 10 11 12 3 15 1 10 10 22 5 0 3 -2 17 -2 6 3 30 28 9 4 -7 18 0 -5 -21
11 24 3 6 8 7 4 7 7 1 4 8 12 8 17 8 9 6 11 15 -3 2 10 9 11 6 17 11 -2 4 -0 12 5 3 3 8 9 18 28 4 -3 -14 4 4
-12 38 -11 11 8 5 3 8 10 15 7 12 16 12 14 7 2 8 14 5 11 5 8 14 7 17 13 7 22 6 7 3 15 10 1 -1 3 3 26 26 3 9 8 8
5 23 4 9 7 4 5 6 9 10 13 18 17 11 5 8 7 8 4 0 15 8 2 8 -3 6 10 9 9 21 14 16 9 19 15 14 29 26 8 6 25 24 9 4
3 2 8 11 5 4 5 9 11 12 7 18 13 11 13 12 11 9 5 10 -3 5 14 14 10 7 10 15 12 10 5 7 2 9 13 9 10 10 20 23 6 13 10 10
11 5 11 7 4 4 8 9 9 10 7 10 12 14 13 14 16 5 13 8 4 7 12 8 10 16 13 12 12 11 4 16 11 3 18 -19 21 16 18 8 9 16 19 14
44 8 9 5 4 3 10 9 9 12 6 17 17 14 13 12 8 11 7 11 12 10 8 -3 10 8 9 11 12 19 10 5 -5 20 9 5 7 2 14 10 19 7 10 11
27 -2 8 6 5 5 8 9 10 13 12 18 17 13 11 16 9 12 18 9 9 5 15 -0 9 11 11 5 5 15 17 14 6 2 -0 14 1 4 7 32 9 7 5 6
67 -0 8 -1 -6 11 8 11 12 12 11 20 15 13 16 14 13 7 24 12 14 14 1 6 8 6 16 10 0 4 13 5 14 26 5 17 19 14 21 7 5 0 4 7
3 9 4 5 1 4 8 10 14 9 0 28 13 15 17 14 16 15 21 -1 32 9 7 9 6 11 14 8 10 16 14 -13 5 -8 23 -2 -7 14 12 12 2 4 1 -3
-2 5 4 8 2 10 10 10 11 15 17 15 14 14 14 14 16 16 14 4 23 11 5 5 2 -1 11 1 23 6 12 13 -0 3 18 15 5 10 -1 -1 -3 -2 9 4
1 7 7 4 5 1 12 12 12 6 -26 22 8 8 9 12 14 13 13 13 10 20 15 9 -0 8 25 7 0 3 1 5 9 16 14 -8 0 0 3 -1 0 5 3 7
5 2 5 1 4 13 12 7 1 21 -13 18 6 6 8 9 11 10 11 12 13 10 17 7 11 13 3 5 5 5 12 13 5 9 1 5 -4 1 -1 -2 -5 0 2 4
-1 8 1 2 9 1 12 6 9 -14 29 8 -1 7 7 6 7 7 8 10 11 13 14 14 17 12 4 10 14 11 8 9 13 8 6 3 4 4 7 12 24 26 19 16
4 1 8 2 5 9 16 5 20 15 4 3 11 0 6 6 6 5 6 6 7 9 11 9 7 11 14 10 11 9 25 26 27 25 32 28 23 18 12 9 10 12 14 15
-2 4 6 6 -0 2 4 -3 23 3 8 -13 11 27 7 6 9 6 7 9 9 9 7 9 6 10 11 14 11 11 1 4 8 10 5 6 6 10 20 25 22 21 15 19
10 2 5 8 8 -6 -4 12 23 7 -10 4 21 8 19 7 11 8 9 10 12 13 8 8 10 11 9 3 6 12 8 8 5 5 8 10 9 8 10 21 20 17 9 9
-1 5 7 8 2 -1 17 19 7 9 -2 1 18 4 12 4 7 8 4 12 9 11 11 12 14 19 13 13 9 7 10 10 6 12 10 15 14 12 9 17 15 20 21 13
15 -3 -5 15 6 3 -7 2 11 12 14 20 12 9 11 4 7 7 5 12 10 11 14 8 12 17 17 12 8 9 8 11 4 3 10 16 17 17 16 12 14 14 18 14
2 9 6 29 2 -9 -12 24 8 22 9 19 14 7 7 6 5 -2 14 7 17 8 9 11 15 6 7 9 11 10 6 5 8 16 17 10 4 3 5 16 24 21 15 11
12 -12 17 -6 -14 15 19 18 13 15 1 22 8 10 2 8 8 11 11 12 12 13 12 12 15 1 6 7 7 5 6 14 14 7 3 2 1 -0 0 3 -0 -2 19 24
-17 -16 21 -7 28 16 22 7 -0 -1 10 13 24 14 2 4 13 7 8 10 10 10 8 13 10 2 2 7 6 5 9 9 8 8 10 11 10 8 8 8 6 8 8 2
7 -12 14 0 18 26 9 17 19 4 17 16 31 17 -10 21 -5 18 6 11 13 10 16 14 -0 -1 5 7 8 9 8 11 10 9 9 8 7 9 11 14 15 10 10 10
2 -19 18 28 -6 10 20 14 11 8 13 35 16 14 15 17 7 15 6 5 4 9 13 6 0 2 7 7 9 8 10 8 10 11 10 14 16 15 16 12 12 15 10 7
17 -3 21 14 21 15 7 2 1 7 23 14 -12 17 -2 17 16 11 8 4 10 14 11 -0 -3 5 7 7 8 10 13 9 10 10 10 13 13 16 16 15 12 12 15 12
Height
3010 3016 3023 3029 3029 3030 3030 3029 3029 3028 3028 3029 3027 3027 3028 3029 3031 3033 3034 3036 3036 3038 3040 3042 3043 3043 3044 3046 3049 3051 3053 3054 3058 3061 3063 3065 3067 3071 3074 3074 3077 3076 3077 3078
3002 3008 3015 3022 3023 3025 3026 3025 3025 3024 3024 3025 3024 3026 3027 3029 3030 3032 3034 3035 3036 3037 3040 3043 3043 3044 3044 3047 3049 3052 3054 3056 3058 3063 3066 3065 3066 3068 3070 3073 3074 3075 3077 3076
2993 3000 3009 3015 3016 3020 3021 3022 3021 3020 3020 3020 3022 3024 3026 3027 3029 3030 3032 3034 3035 3037 3039 3041 3042 3043 3044 3046 3050 3051 3054 3055 3056 3058 3058 3059 3060 3063 3067 3069 3071 3072 3072 3072
2984 2995 3003 3008 3009 3014 3018 3017 3017 3017 3017 3017 3019 3022 3025 3026 3027 3029 3031 3033 3035 3038 3040 3041 3042 3043 3043 3046 3049 3051 3052 3053 3054 3055 3057 3058 3058 3059 3061 3063 3064 3067 3068 3069
2978 2989 2998 3001 3004 3009 3013 3013 3014 3013 3013 3015 3016 3019 3021 3024 3025 3028 3029 3031 3033 3036 3036 3038 3040 3041 3044 3046 3047 3049 3051 3052 3052 3053 3055 3056 3057 3057 3057 3057 3059 3061 3062 3062
2974 2984 2992 2996 3000 3005 3008 3010 3010 3011 3011 3012 3013 3015 3018 3021 3022 3026 3027 3029 3032 3034 3036 3038 3040 3042 3042 3043 3046 3047 3049 3051 3052 3052 3052 3053 3054 3051 3052 3053 3054 3056 3057 3058
2969 2980 2986 2991 2996 3001 3004 3006 3007 3008 3009 3009 3010 3013 3015 3017 3020 3022 3025 3028 3030 3033 3035 3037 3039 3041 3042 3044 3045 3046 3048 3049 3051 3052 3052 3053 3048 3048 3048 3049 3051 3053 3055 3055
2966 2975 2982 2987 2992 2997 3000 3002 3004 3004 3005 3006 3007 3009 3012 3014 3018 3020 3023 3027 3030 3032 3034 3036 3038 3039 3040 3041 3043 3045 3045 3046 3049 3050 3051 3048 3047 3045 3046 3047 3049 3048 3050 3050
2961 2971 2978 2984 2990 2993 2997 2999 3001 3001 3003 3003 3004 3006 3010 3012 3015 3018 3021 3025 3027 3030 3032 3034 3038 3038 3038 3040 3040 3042 3044 3047 3047 3048 3049 3047 3045 3045 3045 3045 3046 3046 3046 3046
2959 2967 2974 2981 2986 2991 2994 2997 2998 2999 3000 3001 3002 3004 3007 3010 3012 3015 3018 3021 3024 3028 3029 3033 3035 3036 3038 3040 3041 3041 3043 3044 3045 3046 3046 3044 3041 3042 3043 3045 3049 3044 3044 3043
2956 2965 2971 2980 2984 2988 2993 2995 2996 2997 2999 2999 3001 3003 3006 3008 3011 3012 3016 3020 3021 3025 3028 3030 3032 3034 3037 3037 3038 3038 3040 3042 3041 3041 3042 3041 3038 3039 3041 3040 3039 3040 3040 3040
2955 2962 2971 2978 2984 2986 2990 2993 2995 2996 2998 3000 3001 3003 3005 3007 3010 3012 3013 3017 3017 3020 3024 3027 3029 3032 3034 3036 3037 3039 3040 3040 3040 3042 3039 3037 3036 3036 3036 3037 3037 3038 3038 3037
2953 2959 2969 2977 2980 2985 2989 2991 2994 2996 2998 3000 3001 3003 3006 3008 3009 3011 3014 3016 3016 3018 3022 3025 3027 3028 3031 3032 3034 3035 3036 3038 3039 3040 3038 3036 3036 3035 3035 3036 3035 3034 3034 3033
2952 2959 2968 2974 2978 2984 2989 2991 2995 2997 2999 3000 3003 3004 3007 3009 3010 3011 3013 3015 3016 3017 3020 3022 3023 3025 3027 3028 3030 3032 3034 3033 3032 3032 3034 3035 3034 3031 3030 3031 3030 3029 3029 3028
2951 2959 2968 2972 2979 2984 2988 2991 2995 2997 3002 3001 3003 3005 3008 3010 3012 3012 3014 3015 3016 3017 3019 3020 3021 3022 3025 3025 3026 3026 3028 3028 3030 3030 3029 3030 3029 3027 3025 3024 3024 3022 3021 3021
2951 2959 2968 2971 2978 2984 2988 2991 2995 2998 2999 3004 3003 3006 3008 3010 3013 3014 3014 3016 3016 3017 3018 3019 3019 3020 3022 3021 3020 3022 3022 3022 3023 3023 3022 3024 3023 3021 3019 3016 3015 3012 3011 3010
2950 2958 2966 2972 2977 2983 2986 2992 2995 2997 3000 3003 3005 3006 3009 3010 3011 3013 3014 3016 3016 3017 3017 3017 3017 3017 3019 3017 3016 3015 3016 3016 3016 3017 3018 3018 3016 3014 3012 3009 3007 3004 3002 3001
2949 2958 2964 2970 2976 2982 2987 2991 2993 2996 2999 3002 3003 3005 3007 3009 3011 3012 3012 3014 3015 3016 3016 3016 3016 3015 3015 3013 3012 3013 3013 3014 3014 3013 3013 3011 3011 3009 3006 3002 2998 2997 2996 2995
2950 2957 2965 2970 2976 2982 2987 2989 2993 2996 3002 3001 3002 3004 3007 3008 3009 3010 3012 3013 3014 3014 3014 3014 3014 3012 3011 3010 3010 3010 3011 3011 3011 3010 3008 3006 3004 3001 2998 2995 2993 2991 2990 2989
2949 2957 2962 2969 2975 2982 2987 2990 2993 2996 2998 2999 3000 3003 3003 3007 3008 3009 3011 3011 3011 3011 3013 3012 3009 3007 3007 3008 3008 3008 3009 3008 3007 3006 3005 3002 2999 2997 2995 2992 2989 2987 2986 2984
2946 2953 2960 2967 2975 2982 2986 2989 2991 2993 2995 2996 2998 3000 3003 3005 3007 3007 3009 3008 3009 3009 3011 3010 3006 3005 3006 3006 3006 3006 3005 3004 3003 3001 2998 2995 2994 2991 2990 2988 2987 2984 2982 2980
2947 2956 2964 2968 2976 2980 2985 2986 2988 2987 2991 2991 2994 2997 3001 3003 3005 3006 3007 3007 3008 3007 3008 3007 3003 3004 3003 3003 3002 3002 3002 3001 2999 2996 2995 2992 2990 2987 2985 2983 2981 2979 2977 2974
2950 2958 2962 2966 2970 2973 2976 2976 2978 2982 2985 2988 2990 2995 2998 3001 3004 3004 3005 3005 3005 3006 3004 3001 3000 3001 3000 3000 2999 2998 2997 2996 2994 2993 2992 2990 2987 2985 2983 2980 2978 2976 2974 2970
2950 2953 2957 2961 2963 2965 2967 2971 2976 2981 2984 2986 2988 2991 2996 2998 3000 3001 3000 3002 3003 3002 3000 2996 2997 2998 2997 2996 2996 2994 2993 2991 2990 2989 2987 2985 2982 2979 2977 2975 2973 2972 2970 2968
2947 2952 2954 2955 2958 2962 2966 2970 2974 2978 2981 2984 2986 2989 2993 2996 2998 2998 2998 2998 2997 2995 2993 2993 2994 2994 2994 2992 2992 2990 2988 2986 2985 2983 2980 2978 2976 2973 2971 2969 2967 2966 2965 2963
2946 2947 2949 2952 2958 2961 2965 2969 2973 2976 2980 2982 2985 2987 2989 2992 2994 2994 2993 2993 2990 2990 2990 2991 2991 2991 2990 2988 2987 2985 2983 2980 2979 2977 2975 2973 2969 2967 2964 2963 2961 2959 2959 2958
2941 2946 2948 2951 2956 2961 2964 2967 2970 2974 2978 2981 2983 2983 2985 2987 2988 2989 2988 2987 2987 2988 2987 2988 2988 2987 2985 2984 2982 2979 2977 2975 2972 2971 2968 2966 2964 2961 2958 2956 2954 2953 2953 2953